Temperature
20 20 21 21 21 20 20 19 19 20 19 20 20 19 20 21 22 22 22 22 22 23 23 23 22 22 22 21 21 21 21 20 20 20 20 19 19 18 18 18 17 17 17 17
20 20 20 21 21 21 20 20 19 20 20 19 20 20 20 21 21 21 22 22 22 23 22 22 22 22 21 21 21 21 21 20 20 20 19 19 19 18 18 18 17 17 17 17
18 19 20 20 20 20 20 19 19 20 20 19 18 18 19 20 21 21 22 22 22 22 22 22 22 22 22 21 21 21 21 20 20 20 20 19 19 18 18 18 17 17 17 16
16 19 20 19 20 20 19 19 19 19 18 18 18 20 20 21 21 22 22 22 22 22 22 22 22 21 21 21 20 20 20 20 20 20 19 19 19 18 18 18 17 17 17 16
15 17 18 19 19 19 19 19 18 18 18 18 18 19 20 21 21 22 22 22 22 22 22 22 21 21 21 20 20 20 20 20 20 19 19 19 18 18 18 17 17 17 17 16
14 17 17 18 19 19 19 18 18 17 17 17 17 17 18 21 21 21 21 21 21 22 22 22 21 21 20 20 20 20 20 20 19 19 19 19 18 18 18 17 17 17 17 16
14 16 16 17 17 18 19 18 18 17 17 17 17 18 19 20 20 20 20 21 21 21 21 21 21 20 20 20 20 20 20 19 19 19 19 18 18 18 17 17 17 17 16 16
13 15 16 16 17 16 16 17 17 17 18 18 18 18 19 19 20 20 20 20 20 20 20 21 20 20 20 20 20 19 19 19 18 18 18 18 18 17 17 17 17 16 16 16
13 14 15 16 16 17 17 17 17 17 17 18 18 18 18 19 19 20 20 20 20 20 20 20 20 20 19 19 19 19 19 18 18 18 18 17 17 17 17 17 16 16 16 16
12 13 15 16 17 17 17 17 17 17 17 18 17 18 18 18 19 19 19 19 19 19 19 19 19 19 19 19 19 19 18 18 18 18 17 17 17 17 16 16 16 16 16 16
12 13 14 16 16 17 17 17 17 17 17 17 17 17 18 18 19 19 19 19 19 19 18 18 18 18 18 18 18 18 18 18 18 17 17 17 17 16 16 16 16 16 16 16
13 14 13 15 16 16 16 16 16 16 17 17 17 17 18 18 18 18 18 18 18 18 18 18 18 18 18 18 18 18 17 17 17 17 17 17 16 16 16 16 16 15 15 15
15 16 15 15 16 16 16 16 16 16 16 17 17 17 17 17 18 18 18 17 18 17 17 17 17 17 17 17 17 17 17 17 17 17 16 16 16 16 16 15 15 15 15 15
15 15 14 15 15 15 15 15 15 16 16 16 16 16 16 17 17 17 17 17 17 17 17 17 17 17 16 16 16 16 16 16 16 16 16 16 16 16 15 15 15 15 15 15
14 14 14 14 15 15 15 15 15 15 15 15 16 15 15 16 16 16 16 16 16 16 16 16 16 16 16 16 16 16 16 16 16 16 15 15 15 15 15 15 14 14 14 14
14 14 14 14 14 14 14 14 14 14 14 14 15 15 15 15 15 15 15 15 15 15 16 16 16 16 15 15 15 15 15 15 15 15 15 15 15 14 14 14 14 14 14 14
13 13 13 13 13 13 13 13 13 13 13 14 14 14 14 14 14 15 15 15 15 15 15 15 15 15 15 15 15 15 14 14 14 14 14 14 14 14 14 13 13 14 14 14
13 13 13 13 13 13 13 13 13 13 13 13 13 13 13 14 14 14 14 14 14 14 15 15 15 15 15 14 14 14 14 14 13 13 14 13 13 13 13 13 13 13 13 13
13 13 13 12 12 12 12 12 13 13 13 13 13 13 13 13 13 13 14 14 14 14 14 14 14 14 14 14 14 14 13 13 13 13 13 13 13 13 13 13 13 13 13 13
12 12 12 12 12 12 12 12 12 12 12 12 12 13 13 13 13 13 13 13 13 14 14 14 14 14 14 14 13 13 13 13 13 13 13 13 13 13 12 12 12 12 12 12
12 12 12 12 12 12 12 12 12 12 12 12 12 12 12 12 12 13 13 13 13 13 13 13 13 13 13 13 13 13 13 13 13 12 12 12 12 12 12 12 12 12 12 12
11 11 11 11 12 12 12 12 11 11 11 11 12 12 12 12 12 12 12 13 13 13 13 13 13 13 13 13 13 12 12 12 12 12 12 12 12 12 11 11 11 11 11 11
11 11 11 11 11 11 11 11 11 11 11 11 11 11 11 12 12 12 12 12 12 12 12 12 12 12 12 12 12 12 12 12 12 11 11 11 11 11 11 11 11 11 11 10
10 11 11 11 11 11 11 11 11 11 11 11 11 11 11 11 11 12 12 12 12 12 12 12 12 12 12 12 12 12 11 11 11 11 11 11 11 11 11 11 10 10 10 10
10 10 10 10 10 10 10 10 10 10 10 10 10 10 11 11 11 11 11 11 11 11 11 11 11 12 11 11 11 11 11 11 11 11 11 11 11 11 10 10 10 10 10 10
10 10 10 10 10 10 10 10 10 10 10 10 10 10 10 10 10 10 11 11 11 11 11 11 11 11 11 11 11 11 11 11 11 11 10 10 11 10 10 10 10 10 10 10
9 10 10 10 10 10 10 10 10 10 10 10 10 10 10 10 10 10 10 10 10 10 11 11 11 11 11 11 11 11 10 10 10 10 10 10 10 10 10 10 10 10 10 9
Wind_Speed
5 5 3 4 5 5 6 8 9 9 9 10 8 6 5 5 4 4 4 4 5 5 6 6 6 7 8 8 8 9 9 9 9 8 7 7 7 7 6 7 8 7 6 5
2 2 2 3 4 5 5 5 6 5 8 7 5 2 3 4 4 5 5 6 5 5 5 6 7 8 8 8 8 8 9 8 8 7 7 7 7 7 6 6 6 6 6 6
3 4 2 4 5 5 4 4 6 7 8 4 2 3 5 5 6 6 6 5 5 5 5 6 7 8 9 8 7 8 8 7 7 7 7 7 7 7 7 7 6 5 5 5
2 1 5 7 3 2 3 2 3 3 3 3 5 4 3 4 5 6 5 5 5 4 4 4 5 5 5 6 7 7 6 6 6 7 7 6 6 7 6 5 6 6 6 6
4 4 5 6 3 1 2 3 1 1 2 3 3 3 3 2 3 5 5 5 5 5 5 4 5 6 6 7 7 6 6 6 7 7 7 7 7 7 5 5 5 5 6 6
4 4 6 7 5 3 2 3 2 1 1 2 2 1 4 3 2 2 2 2 3 3 3 4 4 5 7 7 7 7 7 7 7 7 7 8 7 6 4 5 5 6 5 6
4 5 6 6 6 1 3 5 4 3 2 1 2 4 4 4 2 1 2 3 3 4 3 4 4 6 6 5 7 7 6 5 5 6 6 6 5 5 5 5 5 5 4 4
4 4 7 4 2 2 4 4 3 3 2 2 3 4 3 3 2 1 1 2 3 3 3 2 4 6 5 5 6 5 5 5 5 5 5 5 5 4 5 5 5 4 3 3
6 6 4 2 2 3 2 2 3 3 4 2 3 4 4 3 3 2 1 2 2 3 3 2 2 5 5 4 3 4 5 5 5 5 5 5 6 5 4 4 4 4 4 4
2 5 5 4 3 2 1 2 3 3 3 2 3 3 3 3 3 2 1 1 2 3 2 1 1 2 3 3 3 4 5 5 5 5 4 4 4 4 5 5 5 4 4 4
3 5 5 5 3 3 4 4 4 5 4 3 3 3 3 3 3 2 2 1 2 3 3 3 2 2 1 2 3 4 4 4 5 5 5 5 5 5 6 6 7 7 6 5
6 6 4 6 6 4 4 5 5 5 6 5 3 3 3 3 3 2 2 2 2 3 3 3 3 2 2 2 3 4 4 4 4 4 5 5 4 3 3 4 5 7 6 6
6 5 5 7 6 5 5 6 6 5 4 5 4 2 2 2 2 2 2 3 4 4 4 4 3 2 2 2 3 4 5 5 4 5 5 5 5 5 4 2 1 3 5 5
5 3 5 6 7 6 5 5 5 4 4 3 3 2 2 1 1 2 4 5 4 4 4 4 3 4 3 3 4 5 5 5 5 5 5 5 6 6 5 5 3 2 2 4
7 6 7 7 6 6 5 4 3 4 4 4 3 2 2 2 3 4 4 4 3 4 4 4 4 5 4 4 5 5 4 4 4 4 4 4 5 5 5 5 4 3 1 1
6 5 5 5 6 6 4 4 4 5 4 4 4 4 4 4 4 3 3 3 4 5 5 5 5 5 4 4 4 4 4 5 5 4 4 4 4 5 5 5 5 4 4 3
4 5 5 6 7 6 6 6 5 6 5 5 6 5 4 3 3 3 4 4 5 5 5 5 6 5 4 5 5 4 4 4 5 4 4 5 5 5 5 5 5 5 4 5
6 7 7 7 7 6 6 5 5 5 6 6 5 4 4 4 5 6 5 3 3 4 5 5 5 4 4 5 5 4 4 4 4 5 4 5 5 5 5 5 5 5 3 4
4 4 4 5 5 4 5 5 5 5 6 5 4 4 5 5 5 5 3 3 4 5 6 5 5 4 4 4 5 4 4 4 4 4 4 4 4 4 4 5 5 5 5 4
4 4 4 4 4 4 4 4 4 5 5 4 3 3 4 4 3 4 3 4 5 5 5 4 4 3 4 4 5 3 4 4 4 3 3 4 4 4 4 5 5 5 5 5
5 4 4 4 4 4 4 4 3 4 5 4 3 4 4 4 3 3 2 3 5 4 4 4 3 3 3 3 4 3 4 4 4 4 4 4 4 4 4 5 5 5 5 5
5 4 4 4 3 4 4 3 3 3 3 4 4 3 3 3 3 2 3 4 4 3 2 2 2 3 3 3 3 3 3 3 3 3 4 4 4 4 4 4 4 5 5 5
4 4 4 4 4 3 3 3 3 3 3 4 3 3 3 3 2 2 3 3 2 2 2 2 2 3 3 2 2 3 3 4 4 4 4 4 4 4 4 5 4 4 4 5
4 4 4 4 3 2 3 4 3 2 3 3 3 3 2 2 2 2 2 3 2 2 2 2 3 3 3 2 2 3 3 3 3 4 4 4 4 4 4 4 4 4 4 5
4 3 3 3 3 3 4 3 3 3 3 2 3 3 2 2 2 2 1 1 1 1 1 2 2 3 2 2 3 3 3 3 3 3 3 3 3 3 4 4 4 4 4 4
4 4 3 3 3 3 3 2 2 2 2 2 3 3 2 2 1 1 1 1 1 1 1 1 1 1 2 2 2 2 2 2 2 2 3 3 3 3 3 3 4 3 3 3
4 4 3 3 3 3 2 1 2 2 2 2 2 3 3 2 1 1 1 1 1 1 1 1 0 1 1 2 1 1 1 2 2 2 2 3 2 2 3 4 3 3 3 3
Wind_Direction
229 238 213 222 225 197 196 194 196 228 227 248 248 238 238 224 209 194 194 195 197 194 190 182 184 183 180 180 178 176 174 184 196 199 200 196 193 192 189 191 196 192 190 195
281 266 239 258 257 221 227 216 223 237 252 261 267 244 248 227 200 203 211 205 203 193 186 187 191 187 182 181 177 171 173 188 193 185 185 190 191 187 185 188 187 182 187 191
252 297 2 271 246 214 212 221 196 216 239 263 269 243 228 220 210 214 214 208 205 199 192 193 194 187 183 180 171 170 180 187 186 179 185 192 190 183 189 191 185 186 192 195
170 93 227 240 270 208 187 246 242 241 259 246 240 249 242 222 211 220 213 202 203 197 196 192 185 180 169 162 170 177 181 184 184 183 188 187 185 190 193 186 184 190 195 202
142 189 264 290 287 214 205 282 310 250 309 323 341 23 338 275 227 222 213 203 201 199 185 167 166 168 159 166 172 176 189 194 193 188 185 184 188 193 192 184 187 193 193 198
144 172 223 247 288 297 136 265 303 333 304 326 44 66 275 296 297 267 204 181 180 177 148 144 159 157 159 171 176 191 200 201 195 186 183 188 191 187 183 183 194 195 202 204
173 209 251 268 299 16 164 249 301 285 273 250 215 229 269 306 301 253 190 160 153 147 139 156 152 148 154 168 197 206 196 188 184 182 185 181 177 176 176 180 182 190 201 212
158 190 249 294 53 154 231 284 299 297 289 274 272 291 309 312 304 329 144 133 140 141 145 143 147 154 165 197 210 189 174 175 179 180 184 175 169 176 177 175 177 186 194 213
191 213 249 272 215 235 218 277 298 303 312 307 306 307 305 299 297 308 205 158 145 143 138 130 154 160 179 210 194 173 171 176 179 175 178 170 171 176 174 173 182 196 202 217
254 272 278 290 286 297 290 289 298 305 310 317 295 288 291 298 304 313 306 165 136 125 135 173 202 173 189 189 173 176 179 182 181 178 175 170 172 177 182 188 194 198 206 217
257 278 310 308 282 288 315 328 332 330 322 297 278 279 272 274 262 247 243 208 156 166 189 203 201 190 200 190 171 180 183 184 184 182 178 183 188 189 193 201 198 198 205 205
232 234 223 262 277 296 302 305 308 318 325 319 281 268 274 265 248 226 213 194 183 192 200 208 192 192 208 206 189 178 182 188 191 189 187 189 192 200 203 203 208 203 200 196
234 247 242 260 274 274 273 287 293 293 288 298 299 275 267 263 242 225 215 203 203 210 212 210 200 204 214 196 184 189 191 196 196 195 194 194 193 194 208 236 207 193 192 194
253 259 274 269 271 278 278 287 296 299 294 286 286 290 276 260 225 207 220 218 212 208 213 212 210 223 223 199 193 199 197 201 199 199 199 197 199 201 199 198 207 233 216 199
262 249 247 266 280 287 288 298 312 311 309 309 310 295 266 242 234 236 239 220 202 206 217 215 222 237 226 206 206 209 207 208 204 198 196 197 197 196 199 199 198 199 219 229
273 276 259 258 264 272 279 279 280 282 285 284 281 272 259 246 242 250 249 206 196 218 227 225 234 241 231 217 216 216 215 214 202 196 193 195 195 196 200 201 201 199 204 206
252 265 259 259 260 263 259 257 257 264 271 271 261 261 265 265 263 262 250 232 226 233 233 229 236 238 225 212 208 216 215 212 201 195 200 200 200 199 200 203 206 209 206 195
236 238 237 237 244 257 267 265 262 262 266 270 265 258 255 241 240 246 245 237 243 262 256 241 234 227 224 214 205 208 206 207 203 207 207 207 206 203 200 205 210 211 211 194
275 260 254 252 251 251 261 268 270 272 274 268 258 255 253 246 245 247 237 215 221 246 259 250 235 223 227 223 213 208 208 210 210 210 210 204 202 204 204 209 212 211 208 200
294 274 265 266 264 256 261 269 276 284 284 268 261 267 266 256 245 245 230 233 239 240 252 253 236 229 227 221 211 210 209 209 208 209 206 206 207 209 213 215 214 211 212 211
309 297 286 281 275 270 266 268 273 280 285 277 261 259 261 261 247 234 227 261 273 256 251 247 235 234 224 207 200 205 206 207 207 207 211 213 214 217 220 220 219 218 215 216
314 312 308 301 291 290 292 287 270 271 284 287 277 268 267 269 264 255 243 245 263 260 251 246 237 227 211 195 197 200 206 207 210 210 210 211 211 215 221 219 215 216 215 214
306 306 309 303 293 291 310 313 300 285 279 274 265 265 261 258 247 233 269 271 256 246 247 251 240 223 206 194 193 197 203 205 210 213 213 212 211 213 216 218 216 215 214 211
311 312 311 306 312 319 315 309 306 295 286 280 272 270 262 260 279 268 259 265 242 227 242 242 234 222 200 199 194 197 204 208 211 215 215 215 215 212 215 216 216 215 212 209
315 319 323 330 325 306 297 308 323 316 301 303 310 312 297 259 252 276 286 275 248 229 262 248 217 206 203 199 199 201 204 206 207 209 213 214 214 213 215 216 214 212 209 210
316 313 309 302 293 289 286 289 291 290 302 316 321 318 311 303 292 298 319 318 315 293 294 299 226 199 206 197 196 200 200 201 205 214 217 218 214 212 212 213 215 212 212 210
320 319 325 324 321 311 301 284 280 291 289 282 290 295 296 303 308 307 292 287 301 304 307 305 259 226 222 208 202 201 200 205 211 214 215 218 213 213 215 210 210 207 209 211
Height
1490 1486 1486 1486 1486 1489 1493 1496 1502 1495 1491 1480 1474 1473 1472 1472 1473 1474 1476 1477 1479 1481 1483 1485 1488 1490 1492 1495 1498 1501 1504 1506 1508 1511 1514 1517 1519 1521 1522 1524 1525 1526 1527 1528
1489 1485 1485 1486 1484 1484 1486 1487 1488 1486 1484 1474 1472 1471 1472 1471 1472 1473 1474 1476 1478 1479 1481 1483 1485 1487 1489 1492 1495 1498 1500 1503 1506 1507 1510 1513 1515 1517 1519 1520 1522 1523 1524 1525
1498 1491 1487 1493 1484 1482 1483 1480 1481 1484 1478 1472 1472 1470 1470 1470 1470 1471 1472 1474 1476 1477 1478 1481 1483 1484 1486 1489 1492 1495 1497 1500 1502 1503 1506 1509 1512 1513 1515 1517 1518 1520 1521 1522
1501 1496 1502 1488 1475 1475 1477 1476 1475 1474 1472 1471 1469 1468 1468 1468 1469 1469 1470 1472 1474 1475 1477 1479 1481 1483 1484 1488 1491 1493 1495 1497 1499 1501 1503 1506 1508 1510 1511 1513 1515 1516 1517 1518
1505 1504 1497 1484 1475 1475 1477 1478 1473 1472 1471 1470 1468 1467 1467 1467 1468 1468 1469 1471 1472 1474 1476 1477 1479 1482 1484 1487 1489 1491 1492 1493 1496 1498 1500 1502 1504 1506 1508 1510 1511 1512 1514 1515
1502 1500 1501 1485 1473 1471 1475 1480 1473 1471 1471 1470 1469 1473 1469 1466 1466 1467 1468 1469 1471 1473 1474 1475 1478 1480 1483 1484 1486 1487 1489 1492 1494 1495 1497 1498 1500 1502 1504 1506 1507 1509 1510 1511
1499 1498 1490 1477 1472 1471 1484 1481 1472 1471 1469 1469 1469 1470 1468 1466 1465 1466 1467 1468 1470 1471 1472 1474 1476 1479 1480 1482 1483 1485 1487 1489 1491 1492 1494 1496 1498 1500 1501 1503 1504 1505 1507 1507
1498 1498 1492 1474 1473 1477 1477 1472 1471 1470 1469 1468 1467 1466 1465 1465 1464 1464 1465 1466 1467 1469 1471 1473 1475 1477 1478 1480 1481 1483 1485 1487 1488 1490 1492 1493 1495 1497 1499 1500 1501 1502 1503 1504
1487 1486 1476 1472 1472 1472 1472 1471 1470 1468 1468 1467 1465 1464 1464 1464 1464 1463 1464 1464 1466 1467 1469 1471 1473 1474 1476 1478 1479 1481 1483 1484 1485 1487 1489 1490 1492 1494 1495 1496 1498 1499 1500 1500
1481 1476 1473 1471 1470 1470 1469 1469 1468 1467 1466 1465 1464 1463 1463 1462 1462 1462 1462 1463 1465 1466 1467 1468 1471 1472 1474 1475 1476 1478 1479 1480 1482 1483 1485 1487 1488 1490 1491 1492 1494 1495 1496 1497
1479 1474 1471 1469 1469 1468 1467 1467 1466 1465 1464 1463 1462 1461 1461 1460 1461 1461 1461 1462 1463 1464 1465 1467 1469 1469 1471 1472 1474 1475 1476 1477 1479 1480 1481 1483 1484 1486 1487 1489 1490 1491 1492 1494
1475 1470 1470 1468 1467 1467 1466 1464 1464 1462 1461 1460 1460 1458 1458 1458 1458 1459 1459 1460 1462 1463 1464 1465 1466 1467 1468 1470 1471 1471 1472 1474 1475 1476 1477 1478 1480 1482 1484 1486 1487 1488 1489 1490
1467 1467 1466 1465 1464 1464 1463 1462 1461 1460 1459 1458 1457 1456 1456 1456 1456 1456 1457 1458 1459 1460 1462 1463 1463 1464 1466 1467 1468 1469 1469 1470 1471 1472 1473 1474 1476 1477 1479 1481 1483 1484 1485 1486
1464 1464 1463 1462 1461 1461 1460 1459 1458 1457 1456 1456 1455 1454 1453 1453 1453 1454 1455 1456 1457 1458 1458 1459 1460 1461 1462 1463 1464 1465 1466 1467 1467 1468 1469 1470 1472 1473 1474 1475 1477 1479 1481 1482
1460 1461 1460 1459 1458 1457 1457 1456 1455 1453 1453 1452 1452 1451 1451 1451 1450 1450 1452 1453 1453 1454 1455 1455 1456 1457 1459 1460 1460 1461 1461 1462 1463 1464 1465 1466 1468 1469 1471 1471 1472 1475 1477 1478
1456 1456 1455 1455 1454 1454 1453 1452 1452 1451 1450 1449 1449 1448 1448 1448 1447 1448 1448 1449 1449 1449 1450 1451 1451 1453 1454 1455 1456 1456 1457 1458 1459 1460 1461 1462 1463 1465 1466 1467 1468 1470 1472 1474
1452 1450 1450 1450 1450 1449 1449 1449 1448 1448 1447 1446 1446 1445 1445 1444 1444 1444 1445 1445 1445 1446 1446 1447 1448 1449 1450 1451 1452 1453 1453 1454 1454 1455 1456 1458 1459 1460 1462 1464 1465 1466 1467 1469
1448 1446 1446 1446 1446 1445 1445 1445 1444 1444 1444 1443 1442 1441 1441 1440 1440 1441 1441 1441 1442 1443 1443 1444 1445 1446 1447 1448 1448 1449 1449 1450 1450 1451 1452 1453 1454 1456 1457 1459 1460 1461 1462 1464
1444 1443 1443 1443 1442 1442 1441 1440 1440 1440 1439 1439 1438 1437 1437 1437 1437 1437 1437 1437 1438 1438 1439 1440 1441 1441 1442 1443 1444 1445 1446 1446 1447 1447 1448 1449 1450 1451 1452 1454 1455 1456 1458 1459
1441 1441 1440 1440 1439 1438 1438 1437 1436 1436 1435 1435 1434 1433 1433 1433 1434 1434 1434 1434 1434 1435 1435 1436 1437 1437 1438 1439 1440 1441 1441 1442 1442 1443 1444 1445 1445 1446 1448 1449 1450 1451 1453 1455
1439 1438 1437 1437 1436 1435 1435 1434 1433 1433 1432 1432 1431 1430 1430 1430 1431 1431 1430 1430 1431 1432 1432 1433 1433 1434 1434 1435 1437 1437 1437 1438 1438 1439 1440 1440 1441 1442 1443 1444 1445 1446 1448 1449
1437 1436 1435 1434 1433 1432 1431 1431 1430 1430 1429 1429 1428 1428 1427 1427 1427 1427 1427 1428 1428 1428 1429 1429 1430 1430 1431 1432 1432 1433 1434 1434 1435 1435 1436 1436 1437 1438 1438 1439 1440 1442 1443 1444
1435 1434 1433 1431 1430 1429 1429 1428 1428 1427 1427 1426 1425 1425 1425 1424 1424 1424 1424 1425 1425 1426 1426 1426 1426 1427 1428 1429 1429 1429 1430 1431 1431 1432 1432 1433 1433 1434 1434 1435 1436 1437 1438 1439
1433 1432 1431 1430 1429 1428 1427 1426 1425 1425 1424 1423 1423 1422 1422 1422 1421 1422 1422 1422 1422 1423 1423 1424 1425 1425 1425 1425 1425 1426 1427 1427 1428 1428 1429 1430 1430 1431 1431 1431 1432 1433 1434 1435
1432 1431 1430 1428 1427 1426 1425 1424 1423 1422 1422 1421 1421 1420 1420 1420 1420 1419 1420 1420 1420 1421 1421 1421 1422 1422 1422 1422 1423 1423 1424 1424 1425 1425 1426 1426 1427 1428 1428 1428 1429 1430 1431 1432
1431 1430 1428 1427 1426 1425 1424 1423 1422 1421 1420 1419 1419 1419 1419 1419 1418 1418 1418 1418 1418 1419 1419 1419 1419 1419 1420 1420 1420 1421 1421 1421 1421 1422 1423 1423 1424 1424 1425 1425 1426 1427 1427 1428
1431 1429 1427 1426 1425 1424 1423 1422 1421 1420 1420 1419 1419 1418 1418 1417 1417 1417 1417 1417 1417 1417 1417 1418 1418 1418 1418 1419 1419 1419 1419 1419 1419 1419 1420 1420 1420 1421 1422 1422 1423 1424 1424 1425